Location: Hradec Kralove
(50.2170°N, 15.8330°E)
Time: 06:31:30
(UTC+02:00)

TIGRISAT - Pass Details

Date: 13 August 2024
Orbit: 591 x 667 km, 97.7° (Epoch: 19 September)

Event Time Altitude Azimuth Distance (km) Brightness Sun altitude
Rises 02:58:08 0° 113° (ESE) 2,905 ? -20.3°
Reaches altitude 10° 03:01:17 10° 88° (E) 1,986 ? -20.1°
Maximum altitude 03:03:29 14° 57° (ENE) 1,732 ? -19.9°
Drops below altitude 10° 03:05:40 10° 27° (NNE) 1,971 ? -19.7°
Sets 03:08:45 0° 2° (N) 2,867 ? -19.5°
